| time (UTC) | temp C | wind direction | speed KPH | gust KPH | rain 1hr cm | rain 24hr cm | rain mn cm | humidity % | barometer mb |
| 20260902185003 | 17 | 248 | 12.9 | 25.7 | 0.03 | 0.81 | 0.81 | 93 | 1015.3 |
| 20260902184503 | 17 | 228 | 16.1 | 27.4 | 0.03 | 0.81 | 0.81 | 93 | 1015.4 |
| 20260902184004 | 17 | 242 | 17.7 | 25.7 | 0.03 | 0.81 | 0.81 | 93 | 1015.3 |
| 20260902183504 | 17 | 222 | 14.5 | 35.4 | 0.03 | 0.81 | 0.81 | 93 | 1015.2 |
| 20260902183004 | 17 | 250 | 17.7 | 32.2 | 0.03 | 0.81 | 0.81 | 92 | 1015.2 |
| 20260902182504 | 17 | 265 | 11.3 | 22.5 | 0.03 | 0.81 | 0.81 | 93 | 1015.1 |
| 20260902182004 | 17 | 235 | 14.5 | 22.5 | 0.03 | 0.81 | 0.81 | 93 | 1015.1 |
| 20260902181503 | 17 | 243 | 9.7 | 19.3 | 0.00 | 0.79 | 0.79 | 92 | 1015.1 |
| 20260902181004 | 17 | 251 | 11.3 | 20.9 | 0.00 | 0.79 | 0.79 | 92 | 1015.2 |
| 20260902180504 | 17 | 259 | 12.9 | 22.5 | 0.00 | 0.79 | 0.79 | 92 | 1015.3 |
| 20260902175503 | 17 | 229 | 11.3 | 24.1 | 0.00 | 0.79 | 0.79 | 92 | 1015.3 |
| 20260902175003 | 17 | 266 | 8.0 | 19.3 | 0.00 | 0.79 | 0.79 | 92 | 1015.3 |
| 20260902174004 | 17 | 229 | 8.0 | 24.1 | 0.00 | 0.79 | 0.79 | 92 | 1015.2 |
| 20260902173504 | 17 | 259 | 12.9 | 24.1 | 0.00 | 0.79 | 0.79 | 92 | 1015.2 |
| 20260902173003 | 17 | 241 | 9.7 | 20.9 | 0.00 | 0.79 | 0.79 | 92 | 1015.2 |
| 20260902172004 | 18 | 257 | 17.7 | 29.0 | 0.00 | 0.79 | 0.79 | 92 | 1015.1 |
| 20260902171503 | 18 | 226 | 9.7 | 29.0 | 0.00 | 0.79 | 0.79 | 92 | 1015.1 |
| 20260902171004 | 18 | 237 | 16.1 | 25.7 | 0.03 | 0.79 | 0.79 | 92 | 1015.0 |
| 20260902170503 | 18 | 242 | 14.5 | 25.7 | 0.03 | 0.79 | 0.79 | 92 | 1015.0 |
| 20260902165504 | 18 | 261 | 11.3 | 25.7 | 0.03 | 0.79 | 0.79 | 92 | 1014.9 |
| 20260902165003 | 18 | 246 | 17.7 | 32.2 | 0.03 | 0.79 | 0.79 | 92 | 1015.0 |
| 20260902164504 | 18 | 238 | 12.9 | 22.5 | 0.03 | 0.79 | 0.79 | 92 | 1015.0 |
| 20260902163504 | 18 | 244 | 17.7 | 32.2 | 0.03 | 0.79 | 0.79 | 92 | 1015.0 |
| 20260902163004 | 18 | 249 | 16.1 | 27.4 | 0.03 | 0.79 | 0.79 | 92 | 1015.0 |
| 20260902162504 | 18 | 253 | 20.9 | 32.2 | 0.03 | 0.79 | 0.79 | 92 | 1015.1 |
| 20260902162004 | 18 | 264 | 17.7 | 27.4 | 0.03 | 0.79 | 0.79 | 92 | 1015.1 |
| 20260902161004 | 18 | 226 | 14.5 | 29.0 | 0.03 | 0.79 | 0.79 | 92 | 1015.0 |
| 20260902160503 | 18 | 236 | 16.1 | 27.4 | 0.03 | 0.79 | 0.79 | 92 | 1015.0 |
| 20260902155503 | 18 | 261 | 16.1 | 24.1 | 0.05 | 0.79 | 0.79 | 92 | 1015.0 |
| 20260902155004 | 18 | 259 | 14.5 | 24.1 | 0.05 | 0.79 | 0.79 | 92 | 1015.0 |
| 20260902154503 | 18 | 241 | 16.1 | 32.2 | 0.05 | 0.79 | 0.79 | 92 | 1014.9 |
| 20260902153503 | 18 | 231 | 17.7 | 32.2 | 0.05 | 0.79 | 0.79 | 92 | 1014.9 |
| 20260902152504 | 18 | 232 | 12.9 | 19.3 | 0.05 | 0.79 | 0.79 | 93 | 1015.0 |
| 20260902152004 | 18 | 256 | 16.1 | 25.7 | 0.05 | 0.79 | 0.79 | 92 | 1015.0 |
| 20260902151504 | 18 | 241 | 12.9 | 27.4 | 0.05 | 0.79 | 0.79 | 92 | 1015.0 |
| 20260902150503 | 18 | 242 | 9.7 | 32.2 | 0.05 | 0.76 | 0.76 | 92 | 1015.0 |
| 20260902150003 | 18 | 252 | 14.5 | 32.2 | 0.03 | 0.74 | 0.74 | 92 | 1015.0 |
| 20260902145503 | 18 | 256 | 12.9 | 20.9 | 0.00 | 0.71 | 0.71 | 92 | 1015.0 |
| 20260902144004 | 18 | 261 | 9.7 | 19.3 | 0.05 | 0.71 | 0.71 | 92 | 1015.1 |
| 20260902143504 | 18 | 257 | 14.5 | 22.5 | 0.05 | 0.71 | 0.71 | 92 | 1015.1 |
| 20260902143004 | 18 | 242 | 11.3 | 19.3 | 0.05 | 0.71 | 0.71 | 92 | 1015.0 |
| 20260902142504 | 18 | 265 | 11.3 | 20.9 | 0.05 | 0.71 | 0.71 | 92 | 1015.1 |
| 20260902142004 | 18 | 238 | 14.5 | 20.9 | 0.08 | 0.71 | 0.71 | 92 | 1015.1 |
| 20260902141504 | 18 | 223 | 11.3 | 20.9 | 0.08 | 0.71 | 0.71 | 92 | 1015.1 |
| 20260902140504 | 18 | 226 | 14.5 | 32.2 | 0.10 | 0.71 | 0.71 | 92 | 1015.1 |
| 20260902140003 | 18 | 233 | 16.1 | 33.8 | 0.13 | 0.71 | 0.71 | 92 | 1015.2 |
| 20260902135504 | 18 | 248 | 20.9 | 40.2 | 0.13 | 0.71 | 0.71 | 92 | 1015.1 |
| 20260902135004 | 18 | 230 | 11.3 | 32.2 | 0.13 | 0.71 | 0.71 | 92 | 1015.1 |
| 20260902134504 | 18 | 214 | 11.3 | 20.9 | 0.08 | 0.69 | 0.69 | 92 | 1015.0 |
| 20260902134003 | 18 | 207 | 14.5 | 25.7 | 0.13 | 0.69 | 0.69 | 92 | 1014.9 |
| 20260902133503 | 18 | 203 | 12.9 | 24.1 | 0.13 | 0.69 | 0.69 | 92 | 1014.9 |
| 20260902133004 | 18 | 201 | 11.3 | 20.9 | 0.13 | 0.69 | 0.69 | 92 | 1015.0 |
| 20260902132503 | 18 | 214 | 12.9 | 27.4 | 0.10 | 0.66 | 0.66 | 92 | 1015.0 |
| 20260902132003 | 18 | 218 | 11.3 | 19.3 | 0.08 | 0.64 | 0.64 | 92 | 1014.9 |
| 20260902131504 | 18 | 220 | 11.3 | 20.9 | 0.08 | 0.64 | 0.64 | 92 | 1014.9 |
| 20260902131004 | 18 | 220 | 11.3 | 25.7 | 0.05 | 0.61 | 0.61 | 91 | 1014.9 |
| 20260902130503 | 18 | 214 | 16.1 | 35.4 | 0.05 | 0.61 | 0.61 | 91 | 1014.9 |
| 20260902125004 | 18 | 206 | 12.9 | 27.4 | 0.05 | 0.61 | 0.61 | 91 | 1014.9 |
| 20260902124503 | 18 | 215 | 12.9 | 22.5 | 0.05 | 0.61 | 0.61 | 91 | 1014.9 |
| 20260902124004 | 18 | 212 | 12.9 | 20.9 | 0.00 | 0.56 | 0.56 | 90 | 1014.9 |
| 20260902123003 | 18 | 199 | 14.5 | 32.2 | 0.00 | 0.56 | 0.56 | 90 | 1014.9 |
| 20260902122504 | 18 | 213 | 14.5 | 32.2 | 0.03 | 0.56 | 0.56 | 90 | 1015.0 |
| 20260902122003 | 18 | 200 | 9.7 | 24.1 | 0.03 | 0.56 | 0.56 | 92 | 1014.9 |
| 20260902120503 | 17 | 195 | 16.1 | 24.1 | 0.08 | 0.56 | 0.56 | 92 | 1015.2 |
| 20260902120004 | 17 | 212 | 11.3 | 20.9 | 0.08 | 0.56 | 0.56 | 92 | 1015.1 |
| 20260902115503 | 17 | 197 | 11.3 | 19.3 | 0.08 | 0.56 | 0.56 | 92 | 1015.2 |
| 20260902115004 | 17 | 168 | 9.7 | 16.1 | 0.10 | 0.56 | 0.56 | 92 | 1015.2 |
| 20260902114503 | 17 | 210 | 9.7 | 19.3 | 0.13 | 0.56 | 0.56 | 92 | 1015.2 |
| 20260902114003 | 17 | 136 | 3.2 | 11.3 | 0.13 | 0.56 | 0.56 | 92 | 1015.2 |
| 20260902113004 | 17 | 114 | 4.8 | 9.7 | 0.13 | 0.56 | 0.56 | 92 | 1015.5 |
| 20260902112504 | 17 | 198 | 4.8 | 9.7 | 0.10 | 0.53 | 0.53 | 92 | 1015.6 |
| 20260902112004 | 17 | 175 | 8.0 | 16.1 | 0.10 | 0.53 | 0.53 | 92 | 1015.6 |
| 20260902111003 | 17 | 176 | 11.3 | 19.3 | 0.05 | 0.51 | 0.51 | 92 | 1015.7 |
| 20260902110503 | 17 | 166 | 4.8 | 16.1 | 0.05 | 0.48 | 0.48 | 92 | 1015.7 |
| 20260902105003 | 16 | 137 | 8.0 | 14.5 | 0.08 | 0.46 | 0.46 | 92 | 1016.0 |
| 20260902104004 | 16 | 138 | 4.8 | 8.0 | 0.08 | 0.43 | 0.43 | 93 | 1016.2 |
| 20260902103503 | 16 | 136 | 4.8 | 11.3 | 0.10 | 0.43 | 0.43 | 93 | 1016.2 |
| 20260902103003 | 16 | 129 | 8.0 | 14.5 | 0.13 | 0.43 | 0.43 | 93 | 1016.2 |
| 20260902102504 | 16 | 144 | 4.8 | 12.9 | 0.15 | 0.43 | 0.43 | 92 | 1016.2 |
| 20260902101504 | 16 | 177 | 3.2 | 8.0 | 0.18 | 0.43 | 0.43 | 92 | 1016.4 |
| 20260902101004 | 16 | 178 | 3.2 | 12.9 | 0.20 | 0.43 | 0.43 | 92 | 1016.6 |
| 20260902100504 | 16 | 177 | 6.4 | 12.9 | 0.23 | 0.43 | 0.43 | 92 | 1016.6 |
| 20260902100004 | 16 | 182 | 0.0 | 4.8 | 0.23 | 0.43 | 0.43 | 92 | 1016.7 |
| 20260902095504 | 16 | 178 | 0.0 | 1.6 | 0.23 | 0.41 | 0.41 | 92 | 1016.7 |
| 20260902095003 | 16 | 178 | 1.6 | 3.2 | 0.23 | 0.38 | 0.38 | 92 | 1016.8 |
| 20260902094503 | 16 | 178 | 0.0 | 1.6 | 0.20 | 0.36 | 0.36 | 92 | 1016.8 |
| 20260902094004 | 16 | 177 | 3.2 | 4.8 | 0.23 | 0.36 | 0.36 | 92 | 1016.7 |
| 20260902093004 | 15 | 175 | 0.0 | 11.3 | 0.20 | 0.33 | 0.33 | 92 | 1016.8 |
| 20260902092504 | 15 | 186 | 3.2 | 11.3 | 0.20 | 0.30 | 0.30 | 92 | 1016.8 |
| 20260902092003 | 15 | 191 | 4.8 | 14.5 | 0.20 | 0.28 | 0.28 | 92 | 1016.9 |
| 20260902091504 | 15 | 133 | 6.4 | 12.9 | 0.18 | 0.25 | 0.25 | 92 | 1016.9 |
| 20260902091003 | 15 | 162 | 4.8 | 12.9 | 0.18 | 0.23 | 0.23 | 92 | 1017.0 |
| 20260902090504 | 15 | 178 | 4.8 | 12.9 | 0.15 | 0.20 | 0.20 | 92 | 1017.0 |
| 20260902090004 | 15 | 162 | 6.4 | 14.5 | 0.15 | 0.18 | 0.18 | 91 | 1017.0 |
| 20260902085504 | 15 | 207 | 6.4 | 16.1 | 0.18 | 0.18 | 0.18 | 91 | 1017.0 |
| 20260902085003 | 15 | 187 | 11.3 | 20.9 | 0.15 | 0.15 | 0.15 | 91 | 1017.1 |
| 20260902084004 | 15 | 209 | 9.7 | 20.9 | 0.15 | 0.15 | 0.15 | 91 | 1017.1 |
| 20260902083503 | 16 | 157 | 12.9 | 22.5 | 0.15 | 0.15 | 0.15 | 91 | 1017.0 |
| 20260902083004 | 16 | 179 | 9.7 | 16.1 | 0.13 | 0.13 | 0.13 | 91 | 1017.2 |
| 20260902082503 | 16 | 216 | 9.7 | 16.1 | 0.10 | 0.10 | 0.10 | 90 | 1017.3 |
| 20260902082004 | 16 | 183 | 11.3 | 19.3 | 0.08 | 0.08 | 0.08 | 90 | 1017.3 |
| 20260902081004 | 16 | 205 | 9.7 | 19.3 | 0.05 | 0.05 | 0.05 | 90 | 1017.2 |
| 20260902080504 | 16 | 229 | 8.0 | 12.9 | 0.05 | 0.05 | 0.05 | 90 | 1017.2 |
| 20260902075503 | 16 | 195 | 4.8 | 9.7 | 0.00 | 0.00 | 0.00 | 89 | 1017.2 |
| 20260902075003 | 16 | 188 | 3.2 | 11.3 | 0.00 | 0.00 | 0.00 | 89 | 1017.2 |
| 20260902074003 | 16 | 180 | 4.8 | 9.7 | 0.00 | 0.00 | 0.00 | 90 | 1017.2 |
| 20260902073504 | 16 | 169 | 4.8 | 8.0 | 0.00 | 0.00 | 0.00 | 90 | 1017.2 |
| 20260902073003 | 15 | 198 | 1.6 | 4.8 | 0.00 | 0.00 | 0.00 | 90 | 1017.2 |
| 20260902072503 | 15 | 199 | 4.8 | 4.8 | 0.00 | 0.00 | 0.00 | 90 | 1017.2 |
| 20260902072003 | 15 | 200 | 3.2 | 8.0 | 0.00 | 0.00 | 0.00 | 90 | 1017.3 |
| 20260902071504 | 15 | 199 | 1.6 | 9.7 | 0.00 | 0.00 | 0.00 | 90 | 1017.2 |
| 20260902071004 | 15 | 206 | 3.2 | 12.9 | 0.00 | 0.00 | 0.00 | 90 | 1017.2 |
| 20260902070504 | 15 | 189 | 8.0 | 24.1 | 0.00 | 0.00 | 0.00 | 90 | 1017.3 |
| 20260902070005 | 15 | 205 | 4.8 | 9.7 | 0.00 | 0.00 | 0.00 | 90 | 1017.3 |
| 20260902065504 | 15 | 194 | 4.8 | 9.7 | 0.00 | 0.00 | 0.00 | 91 | 1017.3 |
| 20260902065004 | 15 | 181 | 1.6 | 4.8 | 0.00 | 0.00 | 0.00 | 91 | 1017.2 |
| 20260902064004 | 15 | 219 | 0.0 | 0.0 | 0.00 | 0.00 | 0.00 | 91 | 1017.3 |
| 20260902063004 | 15 | 222 | 0.0 | 0.0 | 0.00 | 0.00 | 0.00 | 91 | 1017.2 |
| 20260902062504 | 15 | 222 | 0.0 | 0.0 | 0.00 | 0.00 | 0.00 | 91 | 1017.2 |
| 20260902062004 | 15 | 222 | 0.0 | 3.2 | 0.00 | 0.00 | 0.00 | 91 | 1017.2 |
| 20260902060504 | 15 | 224 | 0.0 | 0.0 | 0.00 | 0.00 | 0.00 | 91 | 1017.1 |
| 20260902055503 | 15 | 231 | 0.0 | 0.0 | 0.00 | 0.00 | 0.00 | 91 | 1017.2 |
| 20260902055003 | 15 | 231 | 0.0 | 0.0 | 0.00 | 0.00 | 0.00 | 91 | 1017.2 |
| 20260902054503 | 15 | 232 | 0.0 | 0.0 | 0.00 | 0.00 | 0.00 | 91 | 1017.0 |
| 20260902054004 | 15 | 232 | 0.0 | 0.0 | 0.00 | 0.00 | 0.00 | 91 | 1017.1 |
| 20260902053003 | 15 | 232 | 0.0 | 0.0 | 0.00 | 0.00 | 0.00 | 91 | 1017.2 |
| 20260902052003 | 15 | 232 | 0.0 | 0.0 | 0.00 | 0.00 | 0.00 | 91 | 1017.2 |
| 20260902051503 | 15 | 232 | 0.0 | 0.0 | 0.00 | 0.00 | 0.00 | 91 | 1017.4 |
| 20260902051003 | 15 | 232 | 0.0 | 0.0 | 0.00 | 0.00 | 0.00 | 91 | 1017.5 |
| 20260902050504 | 15 | 232 | 0.0 | 0.0 | 0.00 | 0.00 | 0.00 | 91 | 1017.4 |
| 20260902050005 | 15 | 232 | 0.0 | 0.0 | 0.00 | 0.00 | 0.00 | 90 | 1017.3 |
| 20260902045504 | 15 | 232 | 0.0 | 0.0 | 0.00 | 0.00 | 0.00 | 90 | 1017.3 |
| 20260902045004 | 15 | 232 | 0.0 | 0.0 | 0.00 | 0.00 | 0.00 | 90 | 1017.2 |
| 20260902044504 | 15 | 232 | 0.0 | 0.0 | 0.00 | 0.00 | 0.00 | 90 | 1017.2 |
| 20260902044003 | 15 | 232 | 0.0 | 0.0 | 0.00 | 0.00 | 0.00 | 90 | 1017.2 |
| 20260902043504 | 15 | 232 | 0.0 | 0.0 | 0.00 | 0.00 | 0.00 | 90 | 1017.3 |
| 20260902043003 | 15 | 232 | 0.0 | 0.0 | 0.00 | 0.00 | 0.00 | 90 | 1017.2 |
| 20260902042504 | 15 | 232 | 0.0 | 0.0 | 0.00 | 0.00 | 0.00 | 90 | 1017.3 |
| 20260902041504 | 15 | 232 | 0.0 | 0.0 | 0.00 | 0.00 | 0.00 | 90 | 1017.5 |
| 20260902041003 | 15 | 232 | 0.0 | 0.0 | 0.00 | 0.00 | 0.00 | 90 | 1017.6 |
| 20260902040503 | 15 | 232 | 0.0 | 0.0 | 0.00 | 0.00 | 0.00 | 90 | 1017.6 |
| 20260902040004 | 15 | 232 | 0.0 | 0.0 | 0.00 | 0.00 | 0.00 | 90 | 1017.6 |
| 20260902035504 | 15 | 232 | 0.0 | 0.0 | 0.00 | 0.00 | 0.00 | 90 | 1017.6 |
| 20260902035004 | 15 | 232 | 1.6 | 4.8 | 0.00 | 0.00 | 0.00 | 89 | 1017.6 |
| 20260902034504 | 15 | 229 | 0.0 | 0.0 | 0.00 | 0.00 | 0.00 | 89 | 1017.6 |
| 20260902034003 | 15 | 228 | 0.0 | 0.0 | 0.00 | 0.00 | 0.00 | 89 | 1017.5 |
| 20260902033503 | 15 | 228 | 0.0 | 1.6 | 0.00 | 0.00 | 0.00 | 89 | 1017.6 |
| 20260902033004 | 15 | 228 | 0.0 | 1.6 | 0.00 | 0.00 | 0.00 | 89 | 1017.8 |
| 20260902032504 | 15 | 228 | 1.6 | 4.8 | 0.00 | 0.00 | 0.00 | 89 | 1017.9 |
| 20260902032004 | 15 | 228 | 0.0 | 1.6 | 0.00 | 0.00 | 0.00 | 89 | 1017.9 |
| 20260902031504 | 15 | 228 | 0.0 | 0.0 | 0.00 | 0.00 | 0.00 | 89 | 1017.8 |
| 20260902031004 | 15 | 228 | 0.0 | 0.0 | 0.00 | 0.00 | 0.00 | 89 | 1017.8 |
| 20260902030503 | 15 | 228 | 0.0 | 0.0 | 0.00 | 0.00 | 0.00 | 89 | 1017.9 |
| 20260902030004 | 15 | 228 | 0.0 | 1.6 | 0.00 | 0.00 | 0.00 | 89 | 1018.0 |
| 20260902025504 | 15 | 228 | 1.6 | 4.8 | 0.00 | 0.00 | 0.00 | 89 | 1018.0 |
| 20260902025004 | 15 | 229 | 3.2 | 4.8 | 0.00 | 0.00 | 0.00 | 89 | 1018.1 |
| 20260902024503 | 15 | 229 | 0.0 | 1.6 | 0.00 | 0.00 | 0.00 | 89 | 1018.2 |
| 20260902024004 | 15 | 229 | 0.0 | 1.6 | 0.00 | 0.00 | 0.00 | 89 | 1018.1 |
| 20260902023503 | 15 | 229 | 0.0 | 3.2 | 0.00 | 0.00 | 0.00 | 89 | 1018.2 |
| 20260902023004 | 15 | 229 | 3.2 | 4.8 | 0.00 | 0.00 | 0.00 | 89 | 1018.3 |
| 20260902022503 | 15 | 229 | 3.2 | 4.8 | 0.00 | 0.00 | 0.00 | 89 | 1018.2 |
| 20260902022004 | 15 | 229 | 3.2 | 4.8 | 0.00 | 0.00 | 0.00 | 89 | 1018.3 |
| 20260902020503 | 15 | 233 | 1.6 | 4.8 | 0.00 | 0.00 | 0.00 | 89 | 1018.2 |
| 20260902020003 | 15 | 233 | 3.2 | 8.0 | 0.00 | 0.00 | 0.00 | 89 | 1018.3 |
| 20260902015503 | 15 | 244 | 3.2 | 8.0 | 0.00 | 0.00 | 0.00 | 89 | 1018.4 |
| 20260902014503 | 15 | 245 | 1.6 | 4.8 | 0.00 | 0.00 | 0.00 | 89 | 1018.6 |
| 20260902014003 | 15 | 246 | 3.2 | 4.8 | 0.00 | 0.00 | 0.00 | 89 | 1018.6 |
| 20260902013004 | 15 | 239 | 4.8 | 8.0 | 0.00 | 0.00 | 0.00 | 89 | 1018.7 |
| 20260902012504 | 15 | 230 | 0.0 | 4.8 | 0.00 | 0.00 | 0.00 | 89 | 1018.7 |
| 20260902012004 | 15 | 229 | 1.6 | 4.8 | 0.00 | 0.00 | 0.00 | 89 | 1018.7 |
| 20260902011504 | 15 | 228 | 1.6 | 4.8 | 0.00 | 0.00 | 0.00 | 89 | 1018.8 |
| 20260902011004 | 15 | 215 | 0.0 | 3.2 | 0.00 | 0.00 | 0.00 | 89 | 1018.8 |
| 20260902010504 | 15 | 215 | 0.0 | 0.0 | 0.00 | 0.00 | 0.00 | 89 | 1018.8 |
| 20260902005503 | 15 | 215 | 0.0 | 0.0 | 0.00 | 0.00 | 0.00 | 89 | 1019.0 |
| 20260902005003 | 15 | 215 | 0.0 | 0.0 | 0.00 | 0.00 | 0.00 | 89 | 1018.9 |
| 20260902004503 | 15 | 215 | 0.0 | 4.8 | 0.00 | 0.00 | 0.00 | 89 | 1018.9 |
| 20260902004003 | 15 | 215 | 1.6 | 4.8 | 0.00 | 0.00 | 0.00 | 89 | 1018.9 |
| 20260902003503 | 15 | 213 | 0.0 | 0.0 | 0.00 | 0.00 | 0.00 | 89 | 1018.9 |
| 20260902003003 | 15 | 212 | 0.0 | 0.0 | 0.00 | 0.00 | 0.00 | 89 | 1019.0 |
| 20260902002503 | 15 | 212 | 0.0 | 0.0 | 0.00 | 0.00 | 0.00 | 89 | 1019.0 |
| 20260902002004 | 15 | 212 | 0.0 | 0.0 | 0.00 | 0.00 | 0.00 | 89 | 1019.0 |
| 20260902001503 | 15 | 212 | 0.0 | 0.0 | 0.00 | 0.00 | 0.00 | 89 | 1019.1 |
| 20260902000504 | 15 | 212 | 0.0 | 0.0 | 0.00 | 0.00 | 0.00 | 90 | 1019.1 |
| 20260902000004 | 15 | 212 | 0.0 | 0.0 | 0.00 | 0.00 | 0.00 | 89 | 1019.1 |
| 20260901235004 | 15 | 211 | 0.0 | 0.0 | 0.00 | 0.00 | 0.00 | 89 | 1019.1 |
| 20260901234503 | 15 | 210 | 0.0 | 0.0 | 0.00 | 0.00 | 0.00 | 89 | 1019.1 |
| 20260901234003 | 15 | 210 | 0.0 | 0.0 | 0.00 | 0.00 | 0.00 | 89 | 1019.1 |
| 20260901233503 | 15 | 210 | 0.0 | 0.0 | 0.00 | 0.00 | 0.00 | 89 | 1019.2 |
| 20260901233003 | 15 | 210 | 0.0 | 0.0 | 0.00 | 0.00 | 0.00 | 89 | 1019.3 |
| 20260901232503 | 15 | 210 | 0.0 | 0.0 | 0.00 | 0.00 | 0.00 | 89 | 1019.3 |
| 20260901231503 | 15 | 210 | 1.6 | 4.8 | 0.00 | 0.00 | 0.00 | 89 | 1019.3 |
| 20260901231004 | 15 | 210 | 1.6 | 3.2 | 0.00 | 0.00 | 0.00 | 89 | 1019.4 |
| 20260901230503 | 15 | 210 | 1.6 | 4.8 | 0.00 | 0.00 | 0.00 | 89 | 1019.4 |
| 20260901230004 | 15 | 210 | 1.6 | 4.8 | 0.00 | 0.00 | 0.00 | 89 | 1019.3 |
| 20260901225504 | 15 | 210 | 0.0 | 0.0 | 0.00 | 0.00 | 0.00 | 89 | 1019.3 |
| 20260901225004 | 15 | 210 | 0.0 | 0.0 | 0.00 | 0.00 | 0.00 | 89 | 1019.2 |
| 20260901224504 | 15 | 210 | 0.0 | 0.0 | 0.00 | 0.00 | 0.00 | 89 | 1019.2 |
| 20260901224004 | 15 | 210 | 1.6 | 4.8 | 0.00 | 0.00 | 0.00 | 89 | 1019.2 |
| 20260901223503 | 15 | 210 | 1.6 | 4.8 | 0.00 | 0.00 | 0.00 | 89 | 1019.1 |
| 20260901222004 | 15 | 210 | 3.2 | 8.0 | 0.00 | 0.00 | 0.00 | 88 | 1019.1 |
| 20260901220003 | 15 | 199 | 1.6 | 3.2 | 0.00 | 0.00 | 0.00 | 88 | 1019.2 |
| 20260901215504 | 15 | 199 | 1.6 | 4.8 | 0.00 | 0.00 | 0.00 | 88 | 1019.3 |
| 20260901215004 | 15 | 198 | 0.0 | 4.8 | 0.00 | 0.00 | 0.00 | 88 | 1019.3 |
| 20260901214504 | 15 | 198 | 0.0 | 0.0 | 0.00 | 0.00 | 0.00 | 87 | 1019.3 |
| 20260901213504 | 15 | 198 | 0.0 | 0.0 | 0.00 | 0.00 | 0.00 | 87 | 1019.3 |
| 20260901213004 | 15 | 198 | 0.0 | 0.0 | 0.00 | 0.00 | 0.00 | 87 | 1019.4 |
| 20260901212503 | 15 | 198 | 0.0 | 0.0 | 0.00 | 0.00 | 0.00 | 87 | 1019.5 |
| 20260901212003 | 15 | 198 | 0.0 | 0.0 | 0.00 | 0.00 | 0.00 | 87 | 1019.5 |
| 20260901211003 | 15 | 198 | 0.0 | 0.0 | 0.00 | 0.00 | 0.00 | 86 | 1019.5 |
| 20260901210503 | 15 | 198 | 0.0 | 1.6 | 0.00 | 0.00 | 0.00 | 86 | 1019.5 |
| 20260901210004 | 15 | 198 | 1.6 | 3.2 | 0.00 | 0.00 | 0.00 | 86 | 1019.5 |
| 20260901205503 | 15 | 198 | 3.2 | 4.8 | 0.00 | 0.00 | 0.00 | 85 | 1019.5 |
| 20260901205004 | 15 | 198 | 0.0 | 1.6 | 0.00 | 0.00 | 0.00 | 85 | 1019.5 |
| 20260901204504 | 15 | 198 | 1.6 | 4.8 | 0.00 | 0.00 | 0.00 | 85 | 1019.5 |
| 20260901203504 | 15 | 197 | 0.0 | 3.2 | 0.00 | 0.00 | 0.00 | 85 | 1019.5 |
| 20260901203003 | 15 | 197 | 1.6 | 4.8 | 0.00 | 0.00 | 0.00 | 84 | 1019.5 |
| 20260901202503 | 15 | 197 | 3.2 | 4.8 | 0.00 | 0.00 | 0.00 | 84 | 1019.5 |
| 20260901202003 | 15 | 197 | 1.6 | 4.8 | 0.00 | 0.00 | 0.00 | 84 | 1019.4 |
| 20260901201503 | 15 | 197 | 3.2 | 4.8 | 0.00 | 0.00 | 0.00 | 83 | 1019.5 |
| 20260901201004 | 15 | 196 | 3.2 | 4.8 | 0.00 | 0.00 | 0.00 | 83 | 1019.5 |
| 20260901200004 | 16 | 272 | 0.0 | 4.8 | 0.00 | 0.00 | 0.00 | 82 | 1019.3 |
| 20260901195504 | 16 | 272 | 1.6 | 3.2 | 0.00 | 0.00 | 0.00 | 82 | 1019.4 |
| 20260901195004 | 16 | 272 | 0.0 | 0.0 | 0.00 | 0.00 | 0.00 | 82 | 1019.4 |
| 20260901194504 | 16 | 272 | 1.6 | 3.2 | 0.00 | 0.00 | 0.00 | 82 | 1019.4 |
| 20260901194004 | 16 | 273 | 1.6 | 4.8 | 0.00 | 0.00 | 0.00 | 81 | 1019.4 |
| 20260901193504 | 16 | 272 | 4.8 | 9.7 | 0.00 | 0.00 | 0.00 | 81 | 1019.4 |
| 20260901193004 | 16 | 265 | 3.2 | 4.8 | 0.00 | 0.00 | 0.00 | 80 | 1019.5 |
| 20260901192504 | 16 | 264 | 3.2 | 11.3 | 0.00 | 0.00 | 0.00 | 80 | 1019.3 |
| 20260901192004 | 16 | 280 | 6.4 | 11.3 | 0.00 | 0.00 | 0.00 | 80 | 1019.4 |
| 20260901191504 | 16 | 281 | 6.4 | 12.9 | 0.00 | 0.00 | 0.00 | 79 | 1019.4 |
| 20260901191004 | 16 | 279 | 8.0 | 14.5 | 0.00 | 0.00 | 0.00 | 78 | 1019.4 |
| 20260901190504 | 16 | 275 | 3.2 | 4.8 | 0.00 | 0.00 | 0.00 | 78 | 1019.3 |
| 20260901190003 | 16 | 281 | 3.2 | 4.8 | 0.00 | 0.00 | 0.00 | 78 | 1019.3 |